Location: Unspecified
(0.0000°N, 0.0000°E)
Time: 02:58:22
(UTC+00:00)

Vanguard 1 - Pass Details

Date: 19 December 2023
Orbit: 653 x 3826 km, 34.3° (Epoch: 22 February)

Event Time Altitude Azimuth Distance (km) Brightness Sun altitude
Rises 12:12:20 0° 273° (W) 2,982 12.6 66.3°
Reaches altitude 10° 12:15:20 10° 297° (WNW) 2,190 11.9 66.2°
Maximum altitude 12:18:21 16° 336° (NNW) 2,013 11.7 66.0°
Drops below altitude 10° 12:21:59 10° 13° (NNE) 2,742 12.2 65.8°
Sets 12:26:32 0° 33° (NNE) 4,217 13.1 65.5°
